Date,TemperatureHighF,TemperatureAvgF,TemperatureLowF,DewpointHighF,DewpointAvgF,DewpointLowF,HumidityHigh,HumidityAvg,HumidityLow,PressureMaxIn,PressureMinIn,WindSpeedMaxMPH,WindSpeedAvgMPH,GustSpeedMaxMPH,PrecipitationSumIn
2013-11-1,74,67,59,63,59,54,87,75,57,29.80,29.61,5,0,11,0.01
2013-11-2,69,60,51,58,45,34,94,63,32,29.91,29.64,5,0,12,0.01
2013-11-3,60,48,35,39,31,24,84,56,28,30.43,29.91,6,0,10,0.00
2013-11-4,47,39,32,28,24,21,75,58,36,30.64,30.43,5,0,10,0.00
2013-11-5,53,44,33,42,34,26,79,66,48,30.63,30.48,3,0,4,0.00
2013-11-6,67,55,49,51,46,42,84,72,54,30.48,30.10,6,0,7,0.00
2013-11-7,64,53,45,56,43,26,95,70,38,30.11,29.90,7,0,13,0.00
2013-11-8,55,42,30,29,24,20,76,52,28,30.35,30.11,9,0,11,0.00
2013-11-9,56,41,27,30,26,21,82,57,33,30.39,30.10,2,0,6,0.00
2013-11-10,67,51,37,37,28,23,69,44,19,30.28,29.98,7,1,12,0.00
2013-11-11,59,46,32,30,26,24,80,50,28,30.34,30.06,3,0,7,0.00
2013-11-12,48,41,26,34,22,11,61,47,34,30.44,29.97,6,0,13,0.00
2013-11-13,43,33,25,18,16,13,68,51,30,30.54,30.43,5,0,12,0.00
2013-11-14,60,39,24,22,18,16,75,49,19,30.43,30.26,2,0,4,0.00
2013-11-15,59,46,33,41,26,20,79,48,27,30.31,30.20,2,0,3,0.01
2013-11-16,54,50,47,50,46,40,92,88,78,30.32,30.23,0,0,1,0.00
2013-11-17,60,55,52,58,54,49,96,94,90,30.24,29.78,0,0,0,0.10
2013-11-18,66,59,51,60,40,22,96,56,23,29.95,29.73,0,0,0,0.11
2013-11-19,52,43,35,29,26,22,69,51,31,30.38,29.96,0,0,0,0.00
2013-11-20,46,38,32,26,24,22,74,59,40,30.56,30.38,0,0,0,0.00
2013-11-21,49,42,32,38,34,25,83,73,62,30.57,30.41,0,0,0,0.00
2013-11-22,66,53,43,54,45,38,83,74,63,30.42,30.04,0,0,0,0.00
2013-11-23,55,48,36,38,22,13,78,37,22,30.21,30.02,11,1,14,0.01
2013-11-24,36,28,19,16,4,0,59,37,25,30.57,30.21,10,2,20,0.00
2013-11-25,36,27,16,13,9,6,70,49,30,30.60,30.38,2,0,6,0.00
2013-11-26,39,35,33,37,27,13,93,75,42,30.39,29.61,3,0,6,0.80
2013-11-27,41,38,30,41,32,13,99,78,47,30.12,29.51,12,1,16,0.43
2013-11-28,39,30,22,19,16,12,76,55,37,30.49,30.12,6,0,9,0.00
2013-11-29,43,31,21,23,19,15,82,62,41,30.73,30.47,4,0,7,0.00
2013-11-30,37,27,22,22,18,16,78,69,48,30.73,30.40,3,0,5,0.00